Regional Weather Roundup
Issued by NWS Sterling, VA

Home | Current Version | Previous Version | Graphics & Text | Print | Product List | Glossary Off
Versions: 1 2 3 4 5 6 7 8 9 10 11 12 13 14 15 16 17 18 19 20 21 22 23 24 25 26 27 28 29 30 31 32 33 34 35 36 37 38 39 40 41 42 43 44 45 46 47 48 49 50

000
ASUS41 KLWX 051210
RWRLWX

REGIONAL WEATHER ROUNDUP
NATIONAL WEATHER SERVICE BALTIMORE MD/WASHINGTON DC
800 AM EDT SAT SEP 05 2015

Note: "FAIR" indicates few or no clouds below 12,000 feet
with no significant weather and/or obstructions to visibility.
 TC=TEMPERATURE CELSIUS

 * =Non NWS site. Station does not report precipitation (e.g. rain,
    snow, etc.), thunder, or fog.

DCZ001-MDZ009-015-VAZ040>042-051-053>054-051300-
WASHINGTON METRO

CITY           SKY/WX    TMP DP  RH WIND       PRES   REMARKS
WASHINGTON NAT CLOUDY    74  68  81 NE10      30.22R
DULLES         CLOUDY    72  68  87 NE3       30.23R
ANDREWS AFB    CLOUDY    72  68  87 NE7       30.21R
FT BELVOIR     CLOUDY    73  68  84 VRB1      30.21R
QUANTICO       CLOUDY    72  68  87 NE13      30.22R
COLLEGE PARK*  CLOUDY    73  68  83 E3        30.22R
LEESBURG*      CLOUDY    73  70  88 NE5       30.25R
MANASSAS*      PTSUNNY   72  72 100 N3        30.22R
GAITHERSBURG*  CLOUDY    72  64  78 E5        30.27R

$$

MDZ006>007-011-014-051300-
BALTIMORE METRO

CITY           SKY/WX    TMP DP  RH WIND       PRES   REMARKS
BWI AIRPORT    CLOUDY    73  66  78 E9        30.22R
MD SCIENCE CTR   N/A     74  66  76 MISG      30.23R
MARTIN STATE   PTSUNNY   73  70  88 NE5       30.24
ANNAPOLIS      PTSUNNY   74  69  85 NE12      30.21S
FORT MEADE*    CLOUDY    72  64  78 E8        30.24S

$$

MDZ012-015-019>023-051300-
MARYLAND EASTERN SHORE

CITY           SKY/WX    TMP DP  RH WIND       PRES   REMARKS
OCEAN CITY     SUNNY     77  68  73 NE13      30.17R
SALISBURY      MOSUNNY   74  69  85 NE9       30.18R
BAY BRIDGE AP*   N/A     72  66  83 NE6       30.21F
CAMBRIDGE*     SUNNY     72  66  83 N5        30.19S
EASTON*        MOSUNNY   72  72 100 NE6       30.24R

$$

MDZ017>025-051300-
SOUTHERN MARYLAND

CITY           SKY/WX    TMP DP  RH WIND       PRES   REMARKS
PATUXENT RIVER CLOUDY    74  68  81 NE13      30.19R
ST INIGOES     PTSUNNY   75  69  81 NE10G20   30.17R
LEONARDTOWN*   NOT AVBL

$$

MDZ003>005-051300-
NORTH CENTRAL MARYLAND

CITY           SKY/WX    TMP DP  RH WIND       PRES   REMARKS
FREDERICK*     CLOUDY    72  68  88 E6        30.26R
HAGERSTOWN APT PTSUNNY   72  66  81 E6        30.25R
WESTMINSTER*   CLOUDY    70  66  88 E5        30.26R

$$

MDZ501>502-051300-
WESTERN MARYLAND

CITY           SKY/WX    TMP DP  RH WIND       PRES   REMARKS
OAKLAND*       FOG       63  63 100 SE8       30.31R VSB 1/2
CUMBERLAND*    CLOUDY    72  70  94 CALM      30.27S

$$

VAZ025>031-051300-
SHENANDOAH VALLEY

CITY           SKY/WX    TMP DP  RH WIND       PRES   REMARKS
WINCHESTER*    CLOUDY    72  68  88 NE3       30.25R FOG
FRONT ROYAL*   CLOUDY    70  68  94 E3        30.23R
LURAY*         CLOUDY    70  70 100 N6        30.24R FOG
NEW MARKET*    CLOUDY    67  67 100 CALM      30.23R
STAUNTON*      CLOUDY    70  67  93 N3        30.26R FOG
WAYNESBORO*    CLOUDY    69  68  95 CALM      30.25R

$$

WVZ021-048>050-054>055-051300-
EASTERN WEST VIRGINIA PANHANDLE

CITY           SKY/WX    TMP DP  RH WIND       PRES   REMARKS
MARTINSBURG    MOSUNNY   71  67  87 NE5       30.25R FOG
PETERSBURG*    CLOUDY    67  67  98 CALM      30.25S FOG

$$

VAZ036>039-050-051300-
CENTRAL FOOTHILLS

CITY           SKY/WX    TMP DP  RH WIND       PRES   REMARKS
CHARLOTTESVILL CLOUDY    72  69  90 NE7       30.22R FOG
CULPEPER*      CLOUDY    70  69  98 CALM      30.24R FOG
ORANGE*        CLOUDY    72  70  94 N5        30.24R FOG
GORDONSVILLE*  CLOUDY    71  70  97 MISG      30.22R FOG
WARRENTON*     CLOUDY    71  71  99 CALM      30.23R FOG

$$

VAZ055>057-051300-
NORTH AND CENTRAL PIEDMONT

CITY           SKY/WX    TMP DP  RH WIND       PRES   REMARKS
FREDERICKSBRG* MOSUNNY   72  72 100 N6        30.20R
STAFFORD*      CLOUDY    72  69  89 NE5       30.25R FOG

$$

NCZ024-NYZ072-PAZ021-071-VAZ022-071-051300-
OTHER REGIONAL OBSERVATIONS

CITY           SKY/WX    TMP DP  RH WIND       PRES   REMARKS
NEW YORK CITY  MOSUNNY   69  58  67 VRB5      30.30R
PHILADELPHIA   PTSUNNY   73  62  68 NE9       30.24R
PITTSBURGH     MOSUNNY   70  65  84 CALM      30.19R
ROANOKE        CLOUDY    68  67  96 CALM      30.24R
RICHMOND       PTSUNNY   73  70  90 NE10      30.17R FOG
RALEIGH        FOG       70  70 100 NE7       30.15R VSB 1/8

$$

ANZ530>537-051300-
MARINE OBSERVATIONS

STATION/POSITION TIME  TEMP    WIND        PRES
                       AIR SEA DIR/SP/G
                 (UTC) (F)     (DEG/KT/KT) (MB)
THOMAS PT LIGHT  1100   73 80   70/ 13/ 14 1023.3
BALT KEY BRIDGE  1100   73      60/ 13/ 16 1023.0R
COVE POINT       1100   73      80/ 14/ 21 1022.8R
LEWISETTA        1100   76 81   70/ 13/ 17 1021.0R
SOLOMONS ISLAND  1100      81                N/A
PINEY POINT      1105           60/ 10/ 14   N/A

$$




USA.gov is the U.S. government's official web portal to all federal, state and local government web resources and services.